Location: Bielefeld
(52.0356°N, 8.5226°E)
Time: 01:03:16
(UTC+01:00)

ISS - Visible Passes

Search period start: 08 December 2021 00:00
Search period end: 18 December 2021 00:00
Orbit: 417 x 422 km, 51.6° (Epoch: 07 December)

Date Brightness Start Highest point End Pass type
(mag) Time Alt. Az. Time Alt. Az. Time Alt. Az.
08 Dec -0.5 18:04:32 10° WSW 18:06:01 12° SW 18:07:31 10° SSW visible
09 Dec -0.7 17:16:29 10° W 17:18:51 18° SW 17:21:13 10° S visible
17 Dec -0.4 07:45:17 10° S 07:47:07 14° SE 07:48:58 10° ESE visible
